This is the latest recevied weather packets stored in our database for station/object KM4CNW. If no packets are shown the sender has not sent any weather packets the latest 10 day(s).
| Time | Temp. | Humidity | Pressure | Rain* | Wind** | Luminosity | Snow |
|---|---|---|---|---|---|---|---|
| 1777335482 | 16.67° C | 62% | 1015.6 hPa | 0 mm | - | 0 W/m² | - |
| 1777335178 | 16.67° C | 60% | 1015.4 hPa | 0 mm | - | 1 W/m² | - |
| 1777334877 | 17.22° C | 58% | 1015.4 hPa | 0 mm | - | 2 W/m² | - |
| 1777334574 | 17.78° C | 57% | 1015.3 hPa | 0 mm | - | 3 W/m² | - |
| 1777334271 | 17.78° C | 56% | 1015.2 hPa | 0 mm | - | 5 W/m² | - |
| 1777333970 | 18.33° C | 54% | 1015.2 hPa | 0 mm | - | 8 W/m² | - |
| 1777333667 | 18.33° C | 53% | 1015.1 hPa | 0 mm | - | 11 W/m² | - |
| 1777333364 | 18.89° C | 51% | 1015.1 hPa | 0 mm | - | 14 W/m² | - |
| 1777333062 | 18.89° C | 49% | 1014.8 hPa | 0 mm | - | 17 W/m² | - |
| 1777332759 | 19.44° C | 48% | 1014.9 hPa | 0 mm | - | 19 W/m² | - |
| 1777332456 | 19.44° C | 47% | 1015 hPa | 0 mm | - | 21 W/m² | - |
| 1777332153 | 20° C | 45% | 1015 hPa | 0 mm | - | 24 W/m² | - |
| 1777331850 | 20° C | 45% | 1015 hPa | 0 mm | - | 28 W/m² | - |
| 1777331547 | 20.56° C | 44% | 1015.1 hPa | 0 mm | - | 32 W/m² | - |
| 1777331245 | 20.56° C | 43% | 1015 hPa | 0 mm | - | 38 W/m² | - |
| 1777330942 | 20.56° C | 42% | 1015 hPa | 0 mm | - | 43 W/m² | - |
| 1777330638 | 20.56° C | 42% | 1015.1 hPa | 0 mm | - | 47 W/m² | - |
| 1777330336 | 21.11° C | 42% | 1015.2 hPa | 0 mm | - | 44 W/m² | - |
| 1777330033 | 21.11° C | 40% | 1015 hPa | 0 mm | - | 44 W/m² | - |
| 1777329733 | 21.11° C | 40% | 1015.2 hPa | 0 mm | - | 72 W/m² | - |
| 1777329431 | 21.67° C | 39% | 1014.9 hPa | 0 mm | - | 95 W/m² | - |
| 1777329128 | 21.67° C | 38% | 1015.1 hPa | 0 mm | - | 111 W/m² | - |
| 1777328825 | 21.67° C | 39% | 1015.1 hPa | 0 mm | - | 144 W/m² | - |
| 1777328523 | 21.67° C | 37% | 1015.1 hPa | 0 mm | - | 184 W/m² | - |
| 1777328221 | 22.22° C | 36% | 1015.2 hPa | 0 mm | - | 206 W/m² | - |
* Rain latest hour (hover to see other rain measurements)
** Current wind speed in m/s (hover to see current wind gust speed)